Location: *
(46.1833°N, 22.7667°E)
Time: 01:23:12
(UTC+00:00)

Cosmos 2263 Rocket - Pass Details

Date: 17 September 2019
Orbit: 824 x 848 km, 71.0° (Epoch: 13 October)

Event Time Altitude Azimuth Distance (km) Brightness Sun altitude
Exits shadow 21:41:40 19° 15° (NNE) 1,926 4.5 -40.8°
Drops below altitude 10° 21:43:13 10° 20° (NNE) 2,480 5.1 -40.9°
Sets 21:45:43 0° 25° (NNE) 3,416 5.9 -41.0°
